CAPE
2393 1816 1289 412 65 826 783 359 509 355 527 170 67 201 151 61 0 0 0 0 0 0
2824 2051 2018 517 0 82 657 779 567 342 406 138 309 253 118 0 0 0 0 0 0 0
2595 2269 1998 450 0 917 757 544 481 581 340 486 372 89 9 0 0 0 0 0 0 0
2899 2402 2024 1467 702 1118 726 651 784 609 424 234 80 0 0 0 0 0 0 0 0 0
2969 2239 2131 1449 1308 1125 1308 1007 844 751 230 102 0 0 0 0 0 0 0 0 0 0
2918 2291 2007 858 1354 1300 1043 1100 908 444 127 0 0 0 0 0 0 0 0 0 0 0
2460 2331 1561 374 1010 864 673 613 434 101 0 0 0 0 0 0 0 0 0 0 0 0
2611 1961 1067 544 312 164 87 201 79 14 0 0 0 0 0 0 0 0 0 0 0 0
2079 775 400 174 0 0 170 108 3 0 0 0 0 0 0 0 0 0 0 0 0 0
748 320 72 0 0 1 30 0 0 0 0 0 0 0 0 0 0 0 0 0 0 0
875 413 265 92 36 1 0 0 0 0 0 0 0 0 0 0 0 0 0 0 0 0
738 527 292 114 0 0 0 0 0 0 0 0 0 0 0 0 0 0 0 0 0 0
735 565 107 0 0 0 0 0 0 0 0 0 0 0 0 0 0 0 0 0 0 0
634 409 110 54 21 0 0 0 0 0 0 0 0 0 0 0 0 0 0 0 0 0
CIN
-53 -57 -123 -268 -25 -167 -152 -191 -106 -120 -91 -108 -121 -76 -80 -110 -0 -0 -0 -0 -0 -0
-47 -50 -53 -214 -0 -360 -186 -118 -112 -116 -87 -126 -72 -57 -85 -0 -0 -0 -0 -0 -0 -0
-64 -74 -72 -311 -0 -161 -153 -113 -112 -76 -92 -65 -68 -84 -57 -0 -0 -0 -0 -0 -0 -0
-37 -47 -59 -130 -199 -92 -113 -101 -92 -70 -110 -115 -172 -0 -0 -0 -0 -0 -0 -0 -0 -0
-29 -39 -35 -60 -81 -66 -62 -80 -63 -63 -119 -141 -12 -0 -0 -0 -0 -0 -0 -0 -0 -0
-37 -56 -40 -122 -44 -59 -63 -48 -41 -67 -147 -0 -0 -0 -0 -0 -0 -0 -0 -0 -0 -0
-58 -73 -106 -146 -35 -52 -66 -45 -42 -77 -0 -0 -0 -0 -0 -0 -0 -0 -0 -0 -0 -0
-59 -58 -129 -163 -166 -134 -47 -16 -89 -213 -0 -0 -0 -0 -0 -0 -0 -0 -0 -0 -0 -0
-85 -243 -277 -300 -0 -0 -68 -64 -149 -0 -0 -0 -0 -0 -0 -0 -0 -0 -0 -0 -0 -0
-228 -350 -355 -0 -0 -13 -84 -0 -0 -0 -0 -0 -0 -0 -0 -0 -0 -0 -0 -0 -0 -0
-225 -300 -291 -332 -323 -113 -0 -0 -0 -0 -0 -0 -0 -0 -0 -0 -0 -0 -0 -0 -0 -0
-263 -251 -254 -294 -4 -0 -0 -0 -0 -0 -0 -0 -0 -0 -0 -0 -0 -0 -0 -0 -0 -0
-267 -253 -330 -0 -0 -0 -0 -0 -0 -0 -0 -0 -0 -0 -0 -0 -0 -0 -0 -0 -0 -0
-290 -314 -375 -321 -266 -0 -0 -0 -0 -0 -0 -0 -0 -0 -0 -0 -0 -0 -0 -0 -0 -0
Wind_Speed
8 5 9 7 5 4 5 5 6 6 6 6 5 5 3 4 3 5 4 7 6 4
7 8 6 8 5 5 5 6 6 7 6 5 5 6 7 4 4 5 6 6 7 4
8 7 8 6 7 6 8 7 7 6 6 6 6 7 6 4 5 7 4 5 7 6
7 7 6 7 8 9 9 7 8 7 7 6 7 6 7 6 7 7 7 7 7 7
5 6 7 7 9 10 8 8 7 7 7 7 6 7 7 7 6 7 7 6 8 7
8 10 8 6 8 9 10 9 8 7 6 7 7 7 7 7 7 7 6 7 7 5
7 7 7 12 5 6 9 11 10 5 5 7 7 6 6 7 6 7 6 6 7 5
7 5 8 10 13 17 15 10 8 7 5 6 6 3 5 7 6 7 5 6 6 4
7 9 11 13 15 15 10 10 7 5 7 6 4 4 9 9 6 6 6 6 5 5
12 11 10 12 10 11 9 9 9 7 6 6 5 7 10 12 6 6 5 5 5 3
14 12 10 10 11 10 8 10 8 7 6 6 4 7 11 9 7 5 4 4 4 4
13 13 10 10 10 7 8 6 6 6 7 7 4 8 10 7 2 3 4 3 2 2
12 15 11 10 10 7 6 6 6 6 6 8 6 7 7 3 0 3 3 4 4 6
11 12 13 10 7 9 7 7 6 6 5 6 6 4 5 5 4 3 2 2 2 4
Wind_Direction
180 160 168 152 172 159 153 152 163 143 141 145 133 111 80 90 90 60 56 53 40 48
171 168 155 181 145 154 142 147 160 142 146 143 108 81 87 89 74 69 59 55 53 49
171 181 160 158 154 149 140 150 144 126 129 115 93 79 89 79 59 67 49 63 59 38
174 172 144 153 155 154 149 152 123 120 108 103 94 83 77 81 75 71 57 54 52 39
155 146 159 146 146 148 139 118 119 101 105 101 95 86 87 82 86 85 80 68 57 44
166 163 184 149 144 135 118 111 85 96 98 91 97 91 84 89 95 88 97 93 88 72
163 152 168 132 205 121 121 107 90 55 96 90 81 93 99 95 99 90 95 93 87 73
121 152 91 101 85 66 44 65 88 111 88 92 85 69 115 102 108 104 111 91 80 78
118 103 110 116 112 124 141 138 123 89 110 101 95 89 105 105 101 92 89 118 119 79
111 107 115 121 120 132 137 127 116 114 108 113 115 77 113 120 108 111 102 111 123 102
121 122 126 124 126 128 133 129 127 120 128 129 98 83 72 109 124 117 142 167 159 150
130 125 124 127 129 128 124 117 118 131 137 130 115 86 63 63 93 176 185 209 202 173
138 131 134 137 137 133 118 118 126 129 132 146 150 111 93 84 253 169 286 268 240 242
137 134 139 142 137 137 130 123 117 121 136 152 159 157 113 67 83 114 118 90 349 228